[[{"header":{"parameterUnit":"m.s-1","parameterCategory":1,"la1":30.2991,"la2":30.254,"lo1":-89.0895,"lo2":-89.0444,"dy":0.0017,"dx":0.0017,"nx":28,"ny":28,"refTime":"2025-01-02T09:00:00:Z","depth":0,"parameterNumber":2,"parameterNumberName":"U-component_of_WINDS"},"data":[0,0,0,0,0,0,0,0,0,0,0,0,0,0,0,0,0,0,0,0,0,0,0,0,0,0,0,0,0,0,0,0,0,0,0,0,0,0,0,0,0,0,0,0,0,0,0,0,0,0,0,0,0,0,0,0,0,0,-0.0045,-0.0045,0,-0.0055,-0.0055,-0.0055,-0.0076,-0.0077,-0.0077,-0.0077,-0.0085,-0.0085,-0.0084,0,0,0,0,0,0,0,0,0,0,0,0,0,-0.0041,-0.0041,-0.0045,-0.0045,-0.0046,-0.0055,-0.0055,-0.0055,-0.0076,-0.0077,-0.0077,-0.0078,-0.0085,-0.0085,-0.0084,0,0,0,0,0,0,0,0,0,0,0,0,0,-0.0046,-0.0041,-0.0045,-0.0057,-0.0058,-0.0055,-0.0055,-0.0055,-0.0076,-0.0077,-0.0077,-0.0078,-0.0085,-0.0085,-0.0084,-0.0069,0,0,-0.0083,-0.0083,0,0,0,0,0,0,0,0,-0.0046,-0.0046,-0.0055,-0.0056,-0.0058,-0.0065,-0.0056,-0.006,-0.0076,-0.0069,-0.0077,-0.0078,-0.0077,-0.0078,-0.0078,-0.0069,-0.007,-0.0083,-0.0083,-0.0083,-0.0083,0,0,0,0,0,0,0,-0.0045,-0.0046,-0.0049,-0.0055,-0.0057,-0.0061,-0.0062,-0.0057,-0.0069,-0.007,-0.0071,-0.0072,-0.0078,-0.0078,-0.0078,-0.007,-0.0083,-0.0083,-0.0083,-0.0083,-0.0045,-0.0045,0,0,0,0,0,0,-0.0044,-0.0045,-0.0049,-0.0049,-0.0053,-0.006,-0.0062,-0.0062,-0.007,-0.0071,-0.0072,-0.0073,-0.0079,-0.0079,-0.0079,-0.0059,-0.0083,-0.0083,-0.0082,-0.0046,-0.0045,-0.0044,0,0,0,0,0,0,-0.0043,-0.0044,-0.0048,-0.0048,-0.0049,-0.006,-0.006,-0.0062,-0.0062,-0.0071,-0.0073,-0.007,-0.0079,-0.0079,-0.0071,-0.006,-0.0082,-0.0082,-0.0047,-0.0046,-0.0045,-0.0021,0,0,0,0,0,0,-0.0043,-0.0044,-0.0039,-0.0047,-0.0049,-0.0042,-0.0059,-0.0062,-0.0062,-0.0064,-0.007,-0.0071,-0.008,-0.0071,-0.007,-0.006,-0.0082,-0.0048,-0.0047,-0.0045,-0.0023,-0.002,-0.0016,0,0,0,0,0,-0.0043,-0.0033,-0.0039,-0.0039,-0.0044,-0.0041,-0.0041,-0.0052,-0.0061,-0.0055,-0.0061,-0.0071,-0.0061,-0.007,-0.0069,-0.0059,-0.0049,-0.0047,-0.0045,-0.0025,-0.002,-0.0017,0,0,0,0,0,0,-0.0023,-0.0034,-0.0041,-0.0033,-0.0036,-0.0045,-0.0039,-0.0047,-0.0047,-0.0049,-0.0061,-0.0062,-0.0051,-0.0054,-0.0064,-0.0042,-0.0056,-0.0054,-0.0041,-0.0037,-0.0034,-0.0033,-0.0082,0,0,0,0,0,-0.0017,-0.0015,-0.0025,-0.0017,-0.0018,-0.0028,-0.0027,-0.0035,-0.0038,-0.0039,-0.0044,-0.0045,-0.0042,-0.004,-0.0038,-0.0024,-0.0024,-0.0015,-0.0012,-0.0009,-0.0007,0.0003,0.0008,-0.0038,-0.0038,-0.0038,0,0,-0.0006,-0.0012,-0.001,-0.0013,-0.0016,-0.0012,-0.0029,-0.0025,-0.0021,-0.0038,-0.003,-0.0033,-0.0035,-0.0023,-0.0018,-0.0025,0.0006,-0.0007,-0.0005,-0.0004,0.0006,0.001,0.0014,-0.0037,-0.0037,-0.0038,0,0,0.0016,0.0011,0.0019,0.0016,0.0012,0.0006,0.0008,0.0001,-0.0001,0.0007,-0.0005,-0.0,0.0005,0.0004,0.0005,0.0031,0.0023,0.0032,0.005,0.006,0.0064,0.0067,0.0079,0.0083,0.0034,0.0034,0.0034,0,0.0031,0.0035,0.0024,0.0029,0.003,0.0015,0.0024,0.0023,0.002,0.0021,0.0013,0.0021,0.0018,0.0032,0.0038,0.0038,0.0042,0.0033,0.0064,0.0067,0.007,0.0081,0.0086,0.0036,0.0036,0.0035,0.0035,0,0.0055,0.0058,0.0065,0.0063,0.0064,0.0071,0.0062,0.0065,0.0059,0.0054,0.0064,0.0061,0.0064,0.0066,0.0059,0.008,0.0076,0.0066,0.0052,0.0076,0.0087,0.009,0.0038,0.0037,0.0037,0.0036,0,0,0.0088,0.0081,0.0084,0.0084,0.008,0.0083,0.0091,0.0094,0.0098,0.0097,0.0105,0.0111,0.0103,0.0104,0.0097,0.0106,0.0131,0.0096,0.0096,0.0104,0.0156,0.0165,0.0169,0.0125,0.0126,0.0126,0.0157,0,0.0111,0.0122,0.0114,0.0128,0.0133,0.0121,0.0128,0.0128,0.0124,0.0129,0.0126,0.0132,0.0119,0.012,0.0128,0.0126,0.0141,0.0123,0.0134,0.0135,0.0136,0.0174,0.0182,0.0211,0.0161,0.0162,0.0162,0,0.0138,0.0139,0.0154,0.0152,0.0153,0.016,0.0163,0.0167,0.0168,0.0165,0.0168,0.016,0.017,0.0156,0.0171,0.016,0.0164,0.0164,0.0165,0.0166,0.0151,0.0179,0.022,0.0225,0.0168,0.0167,0.0167,0,0.0163,0.0169,0.0179,0.0179,0.0176,0.0182,0.0181,0.0181,0.0184,0.0187,0.019,0.0194,0.0197,0.0202,0.0197,0.0187,0.0215,0.0199,0.0215,0.0215,0.0221,0.0221,0.0266,0.0222,0.0222,0.0222,0.0222,0,0.019,0.02,0.0191,0.0197,0.0209,0.02,0.0213,0.0211,0.0212,0.0219,0.0209,0.0217,0.0209,0.0217,0.0213,0.0228,0.0229,0.0229,0.0228,0.0231,0.0231,0.0234,0.0232,0.0223,0.0223,0.0223,0.0222,0,0.022,0.0214,0.0225,0.0222,0.0222,0.0231,0.0229,0.0236,0.0233,0.0243,0.0245,0.0241,0.025,0.0246,0.0255,0.0253,0.0273,0.0268,0.0272,0.0272,0.0288,0.0288,0.0338,0.0345,0.0295,0.0295,0.0296,0,0.0238,0.0245,0.0244,0.0248,0.0248,0.0255,0.0258,0.0251,0.0256,0.0259,0.0266,0.0274,0.028,0.0296,0.0295,0.0303,0.03,0.0317,0.0301,0.0304,0.0303,0.0303,0.0305,0.032,0.0321,0.0321,0.0322,0,0.0271,0.0268,0.0273,0.0278,0.0282,0.0286,0.0289,0.0293,0.0287,0.0293,0.0302,0.0307,0.0317,0.0326,0.0334,0.0335,0.0329,0.0327,0.0331,0.0334,0.0337,0.0338,0.0283,0.0326,0.0325,0.0325,0.0325,0.0325,0.0296,0.0304,0.0305,0.0311,0.0313,0.0317,0.0324,0.0323,0.033,0.0338,0.0333,0.0345,0.0349,0.0358,0.0361,0.0372,0.0365,0.0371,0.0373,0.0375,0.0378,0.0335,0.0373,0.0373,0.0373,0.0373,0.0373,0,0.0331,0.0331,0.0337,0.0342,0.0349,0.0341,0.0345,0.0351,0.0361,0.0365,0.0371,0.0384,0.0394,0.0394,0.0404,0.0413,0.041,0.0416,0.0416,0.0417,0.0382,0.0378,0.0418,0.0418,0.0418,0.0418,0.0418,0.0418,0.0349,0.0362,0.036,0.0375,0.0376,0.0387,0.039,0.0395,0.0398,0.0412,0.042,0.042,0.0424,0.0434,0.0444,0.0445,0.045,0.0457,0.0456,0.0424,0.0419,0.0415,0.0411,0.0458,0.0458,0.0491,0.0491,0.0491]},{"header":{"parameterUnit":"m.s-1","parameterCategory":1,"la1":30.2991,"la2":30.254,"lo1":-89.0895,"lo2":-89.0444,"dy":0.0017,"dx":0.0017,"nx":28,"ny":28,"refTime":"2025-01-02T09:00:00:Z","depth":0,"parameterNumber":3,"parameterNumberName":"V-component_of_WINDS"},"data":[0,0,0,0,0,0,0,0,0,0,0,0,0,0,0,0,0,0,0,0,0,0,0,0,0,0,0,0,0,0,0,0,0,0,0,0,0,0,0,0,0,0,0,0,0,0,0,0,0,0,0,0,0,0,0,0,0,0,-2.1688,-2.1687,0,-2.1634,-2.1634,-2.1633,-2.1567,-2.1566,-2.1565,-2.1564,-2.1508,-2.1508,-2.1507,0,0,0,0,0,0,0,0,0,0,0,0,0,-2.1731,-2.173,-2.1688,-2.1687,-2.1687,-2.1634,-2.1634,-2.1633,-2.1567,-2.1566,-2.1565,-2.1563,-2.1508,-2.1508,-2.1507,0,0,0,0,0,0,0,0,0,0,0,0,0,-2.1698,-2.173,-2.1688,-2.1648,-2.1643,-2.1635,-2.1634,-2.1633,-2.1567,-2.1566,-2.1564,-2.1563,-2.1509,-2.1508,-2.1507,-2.1533,0,0,-2.1505,-2.1504,0,0,0,0,0,0,0,0,-2.17,-2.1697,-2.1654,-2.165,-2.1646,-2.1606,-2.1628,-2.1599,-2.1568,-2.1596,-2.1564,-2.1562,-2.1542,-2.1538,-2.1532,-2.1531,-2.1528,-2.1505,-2.1504,-2.1504,-2.1504,0,0,0,0,0,0,0,-2.1703,-2.1699,-2.1667,-2.1654,-2.1648,-2.1631,-2.1625,-2.1623,-2.1578,-2.1594,-2.1589,-2.1583,-2.1539,-2.1533,-2.153,-2.1528,-2.1505,-2.1504,-2.1503,-2.1503,-2.1542,-2.1544,0,0,0,0,0,0,-2.1711,-2.1701,-2.1668,-2.1665,-2.167,-2.1632,-2.1625,-2.162,-2.1578,-2.157,-2.1585,-2.158,-2.1535,-2.1531,-2.1528,-2.1553,-2.1504,-2.1503,-2.1503,-2.1541,-2.1543,-2.1544,0,0,0,0,0,0,-2.1712,-2.1709,-2.1671,-2.1682,-2.1675,-2.1633,-2.1628,-2.162,-2.1613,-2.1572,-2.1563,-2.1586,-2.1533,-2.1529,-2.1532,-2.1551,-2.1503,-2.1502,-2.1539,-2.1541,-2.1543,-2.1607,0,0,0,0,0,0,-2.1714,-2.171,-2.172,-2.1682,-2.1675,-2.1677,-2.1629,-2.162,-2.1612,-2.1606,-2.1571,-2.1563,-2.1532,-2.1533,-2.1531,-2.1549,-2.1501,-2.1537,-2.154,-2.1543,-2.1603,-2.1611,-2.1618,0,0,0,0,0,-2.1716,-2.1741,-2.1721,-2.1717,-2.1687,-2.1678,-2.1674,-2.1637,-2.1614,-2.1623,-2.1596,-2.1564,-2.1549,-2.1534,-2.1531,-2.1549,-2.1536,-2.1539,-2.1542,-2.16,-2.161,-2.1618,0,0,0,0,0,0,-2.1782,-2.1735,-2.1713,-2.1727,-2.1707,-2.1667,-2.1678,-2.1649,-2.1636,-2.1631,-2.1585,-2.1578,-2.1586,-2.1568,-2.1552,-2.157,-2.1537,-2.154,-2.1582,-2.1591,-2.1599,-2.1603,-2.1501,0,0,0,0,0,-2.1798,-2.1795,-2.1754,-2.177,-2.1761,-2.1722,-2.1716,-2.1689,-2.1667,-2.1658,-2.1631,-2.161,-2.16,-2.1595,-2.1584,-2.16,-2.159,-2.1611,-2.1618,-2.1625,-2.1627,-2.1632,-2.164,-2.1555,-2.1555,-2.1555,0,0,-2.1832,-2.1806,-2.1807,-2.1783,-2.1764,-2.1761,-2.1715,-2.1714,-2.1711,-2.1658,-2.1659,-2.1638,-2.1611,-2.1621,-2.1623,-2.1606,-2.1648,-2.1629,-2.1634,-2.1634,-2.1636,-2.1644,-2.1651,-2.1558,-2.1557,-2.1557,0,0,-2.1891,-2.1872,-2.1882,-2.1864,-2.1836,-2.1809,-2.1812,-2.1776,-2.176,-2.176,-2.1719,-2.1714,-2.1699,-2.1681,-2.167,-2.1719,-2.1688,-2.1717,-2.1756,-2.1761,-2.1768,-2.1773,-2.1789,-2.1795,-2.172,-2.172,-2.172,0,-2.1936,-2.193,-2.1891,-2.1892,-2.1881,-2.1833,-2.1842,-2.1826,-2.1797,-2.179,-2.1771,-2.1748,-2.1727,-2.173,-2.1742,-2.1735,-2.1735,-2.1721,-2.177,-2.1775,-2.178,-2.1794,-2.18,-2.1723,-2.1723,-2.1723,-2.1722,0,-2.1986,-2.1982,-2.1994,-2.1965,-2.1956,-2.1962,-2.1922,-2.1917,-2.1891,-2.1865,-2.1864,-2.1837,-2.1818,-2.1817,-2.1791,-2.1815,-2.1805,-2.1779,-2.1744,-2.1792,-2.1804,-2.181,-2.1728,-2.1727,-2.1726,-2.1725,0,0,-2.2086,-2.2035,-2.2039,-2.2025,-2.199,-2.1986,-2.1988,-2.1969,-2.1965,-2.1946,-2.1945,-2.1932,-2.1906,-2.1893,-2.1865,-2.187,-2.1908,-2.1842,-2.1841,-2.1854,-2.1929,-2.1948,-2.1956,-2.1887,-2.1888,-2.1889,-2.1931,0,-2.2138,-2.2139,-2.2102,-2.2113,-2.2107,-2.206,-2.2061,-2.2039,-2.2015,-2.2006,-2.1979,-2.1969,-2.1938,-2.1929,-2.1932,-2.1903,-2.1922,-2.1899,-2.1884,-2.1884,-2.1891,-2.1962,-2.1983,-2.2024,-2.1936,-2.1936,-2.1937,0,-2.2198,-2.2182,-2.2192,-2.2154,-2.2151,-2.2153,-2.2131,-2.2124,-2.2097,-2.2078,-2.2063,-2.203,-2.2027,-2.1996,-2.199,-2.1975,-2.1966,-2.1951,-2.1951,-2.1948,-2.1913,-2.1959,-2.2037,-2.2043,-2.1945,-2.1944,-2.1944,0,-2.2268,-2.2249,-2.2251,-2.2241,-2.2197,-2.2199,-2.2181,-2.2153,-2.2143,-2.2124,-2.2117,-2.2098,-2.2087,-2.2072,-2.2034,-2.2015,-2.2031,-2.1997,-2.2014,-2.2015,-2.202,-2.202,-2.2096,-2.2017,-2.2017,-2.2016,-2.2016,0,-2.2329,-2.2337,-2.2282,-2.2284,-2.229,-2.2247,-2.2254,-2.2231,-2.2205,-2.22,-2.2158,-2.2154,-2.2105,-2.2095,-2.2065,-2.2063,-2.2059,-2.2043,-2.2034,-2.2046,-2.2048,-2.2039,-2.2035,-2.2018,-2.2018,-2.2017,-2.2017,0,-2.2409,-2.2372,-2.2372,-2.2331,-2.232,-2.2326,-2.229,-2.2289,-2.2261,-2.2255,-2.2251,-2.2208,-2.2193,-2.2154,-2.2129,-2.2109,-2.2114,-2.21,-2.2124,-2.2118,-2.2137,-2.2136,-2.2209,-2.2216,-2.2134,-2.2135,-2.2136,0,-2.245,-2.2454,-2.2413,-2.2407,-2.239,-2.2381,-2.237,-2.2328,-2.2318,-2.2286,-2.2288,-2.227,-2.2254,-2.2232,-2.2197,-2.2177,-2.2161,-2.2188,-2.2158,-2.2168,-2.2159,-2.2159,-2.2158,-2.2195,-2.2196,-2.2197,-2.2197,0,-2.2525,-2.2507,-2.2494,-2.2474,-2.2463,-2.2445,-2.2424,-2.2421,-2.2373,-2.2364,-2.2349,-2.2336,-2.231,-2.2291,-2.2266,-2.2245,-2.2212,-2.2207,-2.221,-2.2221,-2.2234,-2.2225,-2.214,-2.2206,-2.2205,-2.2204,-2.2204,-2.2203,-2.2585,-2.2586,-2.2557,-2.2543,-2.2523,-2.2505,-2.2501,-2.2472,-2.2459,-2.2435,-2.241,-2.2396,-2.2366,-2.2328,-2.2309,-2.2296,-2.228,-2.2284,-2.2285,-2.2286,-2.2291,-2.2237,-2.2292,-2.2291,-2.2291,-2.2291,-2.2291,0,-2.2658,-2.2636,-2.2624,-2.2596,-2.2585,-2.2556,-2.2531,-2.2523,-2.2512,-2.2487,-2.2471,-2.2451,-2.2433,-2.2396,-2.2373,-2.237,-2.2354,-2.2365,-2.2364,-2.236,-2.2308,-2.2307,-2.2378,-2.2378,-2.2378,-2.2378,-2.2378,-2.2378,-2.2694,-2.2693,-2.2671,-2.2659,-2.2636,-2.2623,-2.2611,-2.2593,-2.2572,-2.2553,-2.2537,-2.2513,-2.2482,-2.2457,-2.2437,-2.2427,-2.2419,-2.2435,-2.242,-2.2372,-2.2364,-2.2356,-2.2355,-2.2434,-2.2435,-2.2472,-2.2472,-2.2472]}]]